SCP
0 0 0 0 0 0 0 0 0 0 0 0 0 0 0 0 0 0 0 0 0 0 0 0 0 0 0 0 0 0 0 0 0 0 0 0 0 0 0 0 0 0 0 0 0 0 0 0 0 0 0 0 0 0
0 0 0 0 0 0 0 0 0 0 0 0 0 0 0 0 0 0 0 0 0 0 0 0 0 0 0 0 0 0 0 0 0 0 0 0 0 0 0 0 0 0 0 0 0 0 0 0 0 0 0 0 0 0
0 0 0 0 0 0 0 0 0 0 0 0 0 0 0 0 0 0 0 0 0 0 0 0 0 0 0 0 0 0 0 0 0 0 0 0 0 0 0 0 0 0 0 0 0 0 0 -0 0 -0 0 0 0 0
0 0 0 0 0 0 0 0 0 0 0 0 0 0 0 0 0 0 0 0 0 0 0 0 0 0 0 0 0 -0 0 0 0 0 0 0 0 0 0 0 0 0 0 0 0 0 -0 0 0 0 0 0 0 0
0 0 0 0 0 0 0 0 0 0 0 0 0 0 0 0 0 0 0 0 0 0 0 0 0 0 0 0 0 -0 0 0 0 0 0 0 0 0 0 0 -0 0 0 0 0 -0 0 0 0 0 0 0 0 0
0 0 0 0 0 0 0 0 0 0 0 0 0 0 0 0 0 0 0 0 0 0 0 0 0 0 0 0 0 0 0 0 0 0 0 0 0 0 0 -0 -0 0 0 0 -0 0 0 0 0 0 0 0 0 0
0 0 0 0 0 0 0 0 0 0 0 0 0 0 0 0 0 0 0 0 0 0 0 0 0 0 0 0 0 0 0 0 0 0 0 0 0 0 -0 0 0 0 -0 0 0 0 0 0 -0 0 0 0 0 0
0 0 0 0 0 0 0 0 0 0 0 0 0 0 0 0 0 0 0 0 0 0 0 0 0 0 0 0 0 0 0 0 0 -0 0 0 0 0 -0 -0 -0 -0 0 0 0 0 0 0 0 0 0 0 0 0
0 0 0 0 0 0 0 0 0 0 0 0 0 0 0 0 0 0 0 0 0 0 0 0 0 0 0 0 0 0 0 0 -0 0 0 0 0 0 0 -0 -0 0 0 -0 -0 -0 -0 -0 -0 0 0 0 0 0
0 0 0 0 0 0 0 0 0 0 0 0 0 0 0 0 0 0 0 0 0 0 0 0 0 -0 0 0 0 0 0 -0 -0 0 0 0 0 0 0 0 0 0 -0 -0 -0 -0 -0 -0 -0 0 0 0 0 -0
0 0 0 0 0 0 0 0 0 0 0 0 0 0 0 0 0 0 0 0 0 0 0 0 0 -0 -0 0 0 0 -0 -0 0 0 0 0 0 0 0 0 0 -0 -0 -0 -0 -0 -0 -0 -0 0 0 0 0 -0
0 0 0 0 0 0 0 0 -0 0 0 0 0 0 0 0 0 0 0 0 0 -0 0 0 0 0 0 0 0 -0 -0 0 0 -0 -0 0 0 0 0 0 0 -0 -0 -0 -0 -0 -0 -0 0 0 0 0 -0 -0
0 0 0 0 0 0 0 0 0 0 0 0 0 0 0 0 0 0 -0 -0 -0 0 0 -0 -0 0 0 0 0 0 0 0 -0 0 0 0 0 0 0 0 0 -0 -0 0 0 0 -0 -0 -0 -0 0 0 0 -0
0 0 0 0 0 0 0 0 -0 0 0 0 0 0 0 0 0 -0 -0 0 0 0 0 -0 0 0 -0 0 -0 -0 0 -0 0 0 0 0 0 0 0 0 -0 -0 -0 0 -0 0 -0 0 0 0 0 0 -0 -0
0 0 0 0 -0 -0 0 -0 0 0 0 0 0 0 0 0 0 0 -0 -0 0 0 0 0 0 0 -0 -0 0 0 0 0 -0 -0 -0 0 0 0 0 0 0 0 0 0 -0 0 0 0 0 0 0 0 -0 -0
0 0 -0 0 0 0 -0 0 0 0 0 0 0 0 0 0 0 -0 -0 -0 0 0 0 0 0 0 -0 0 0 -0 0 -0 -0 -0 0 0 0 0 0 0 0 0 -0 0 0 0 -0 0 0 0 0 0 0 -0
0 0 0 0 0 0 -0 0 0 0 0 0 0 0 0 0 0 -0 0 0 0 0 0 0 0 0 0 0 0 -0 -0 -0 -0 0 0 -0 0 0 0 0 0 0 0 -0 -0 0 0 0 0 -0 0 0 0 0
0 0 0 0 0 0 0 0 0 0 0 0 0 0 0 0 0 0 0 0 0 0 0 0 0 0 0 0 0 0 0 0 0 0 0 0 0 0 0 0 0 0 0 0 0 0 -0 -0 -0 0 0 0 0 0
0 0 0 -0 0 0 0 0 0 0 0 0 0 0 0 0 0 0 0 0 0 0 0 0 0 0 0 0 0 0 0 0 0 0 0 -0 0 0 -0 0 0 -0 0 0 0 0 0 0 0 -0 0 0 0 0
0 0 -0 0 0 0 0 0 0 0 0 0 0 0 0 0 0 0 0 0 0 0 0 0 0 0 -0 0 0 0 0 0 0 0 0 0 0 0 0 -0 -0 -0 -0 -0 -0 -0 -0 0 0 0 -0 -0 0 0
0 0 0 0 0 0 0 0 0 0 0 0 0 0 0 0 0 0 0 0 0 0 0 0 0 0 0 -0 0 0 0 0 0 0 0 0 0 0 -0 -0 -0 -0 -0 -0 -0 -0 -0 -0 0 0 0 -0 -0 -0
0 0 0 0 0 0 0 0 0 0 0 0 0 0 0 0 0 0 0 0 0 0 0 0 0 0 0 0 0 0 0 0 0 0 0 0 0 -0 -0 -0 -0 -0 -0 -0 -0 -0 -0 -0 -0 -0 -0 -0 -0 -0
0 0 0 0 0 0 0 0 0 0 0 0 0 -0 -0 -0 0 0 0 0 0 0 0 0 0 0 0 0 0 0 0 0 0 0 0 0 0 0 0 -0 -0 -0 -0 -0 -0 -0 -0 -0 -0 -0 -0 -0 -0 -0
0 0 0 0 0 0 0 0 0 0 0 0 0 -0 -0 0 0 0 0 0 0 0 0 0 0 0 0 0 0 0 0 0 0 0 0 0 0 0 0 -0 -0 -0 -0 -0 -0 -0 -0 -0 -0 -0 -0 -0 -0 -0
0 0 -0 0 0 0 0 0 0 0 0 0 0 0 0 0 0 0 0 0 0 0 0 0 0 0 0 0 0 0 0 0 0 0 0 0 0 0 0 -0 0 -0 -0 0 0 0 -0 -0 -0 -0 -0 -0 -0 -0
-0 -0 -0 0 0 0 0 0 0 0 0 0 0 0 0 0 0 -0 -0 0 0 0 0 0 0 0 0 0 0 0 0 0 0 0 0 0 0 0 0 0 0 0 0 0 0 0 -0 -0 -0 -0 -0 -0 -0 -0
0 0 0 0 0 0 0 0 0 0 0 0 0 0 0 0 -0 0 0 0 0 0 0 0 0 0 0 0 0 0 0 0 0 0 0 0 0 0 0 0 0 0 0 0 0 0 0 0 -0 -0 -0 -0 -0 -0
0 0 0 0 0 0 0 0 0 0 0 0 0 0 0 0 0 0 0 0 0 0 0 0 0 0 0 0 0 0 0 0 -0 -0 0 0 0 0 0 0 0 0 0 0 0 0 0 0 0 0 -0 -0 -0 0
0 0 0 0 0 0 0 0 0 0 0 0 0 0 0 0 0 0 0 0 0 0 0 0 0 0 0 0 0 0 0 0 -0 0 0 0 0 0 0 0 0 0 0 0 0 0 0 0 0 0 0 0 0 0
0 0 0 0 0 0 0 0 0 0 0 0 0 0 0 0 0 0 0 0 0 0 0 0 0 0 0 0 0 0 0 0 0 0 0 0 0 0 0 0 0 0 0 0 0 0 0 0 0 0 0 0 0 0
0 0 0 0 0 0 0 0 0 0 0 0 0 0 0 0 0 0 0 0 0 0 0 0 0 0 0 0 0 0 0 0 0 0 0 0 0 0 0 0 0 0 0 0 0 0 0 0 0 0 0 0 0 0
0 0 0 0 0 0 0 0 0 0 0 0 0 0 0 0 0 0 0 0 0 0 0 0 0 0 0 0 0 0 0 0 0 0 0 0 0 0 0 0 0 0 0 0 0 0 0 0 0 0 0 0 0 0
0 0 0 0 0 0 0 0 0 0 0 0 0 0 0 0 0 0 0 0 0 0 0 0 0 0 0 0 0 0 0 0 0 0 0 0 0 0 0 0 0 0 0 0 0 0 0 0 0 0 0 0 0 0
Wind_Speed_500mb
41 40 40 40 38 36 36 32 29 30 31 28 23 25 23 24 19 14 12 15 14 12 36 26 16 15 16 13 3 11 17 2 6 3 2 3 2 2 4 4 4 6 6 5 3 2 11 9 9 3 6 13 30 45
44 45 43 40 39 36 30 28 27 32 32 29 20 23 22 20 21 18 19 13 16 23 43 64 63 59 59 62 36 10 8 11 7 3 3 3 3 3 0 4 4 4 7 6 12 9 3 3 19 30 19 39 45 41
42 44 45 44 41 37 34 31 28 28 28 30 20 23 23 24 21 23 22 21 20 23 43 19 7 2 1 13 6 17 11 10 5 8 4 4 6 3 2 6 3 3 3 3 4 1 6 28 4 13 27 35 49 48
41 42 44 46 45 40 35 31 31 29 28 30 26 20 23 27 23 24 24 24 16 12 9 15 18 46 33 38 50 35 34 5 6 11 5 1 4 3 5 4 4 8 3 3 8 9 24 2 19 40 50 54 57 53
40 38 39 43 44 41 35 32 31 25 28 26 24 21 19 25 27 24 25 27 20 13 9 26 61 14 9 13 25 30 36 43 27 7 3 4 5 3 3 2 5 6 7 6 7 11 11 31 44 46 50 57 57 55
33 33 33 34 41 40 36 31 27 23 24 24 21 16 18 20 24 16 8 4 12 18 10 8 20 15 12 10 17 26 32 25 13 6 3 7 8 5 1 4 9 10 12 14 10 20 32 41 40 48 60 63 59 58
28 27 24 23 33 35 33 30 29 27 24 21 18 19 19 21 22 12 7 4 10 1 5 11 10 11 21 7 8 31 29 17 12 7 4 7 9 11 3 5 6 16 15 20 25 30 35 15 47 52 57 62 65 64
26 24 22 23 27 30 31 32 28 28 20 19 18 22 24 18 20 22 22 18 13 6 6 5 8 11 11 7 4 9 14 18 12 8 6 6 5 6 5 11 18 14 16 20 14 27 34 40 42 50 57 59 66 69
22 22 19 19 20 24 26 26 26 23 24 27 27 25 17 14 11 8 4 5 11 13 5 5 5 6 14 8 4 4 5 3 7 4 5 4 3 5 8 12 9 10 12 21 35 39 36 40 43 55 56 61 63 65
23 23 21 18 16 16 18 21 23 21 26 37 29 11 8 7 11 7 3 4 6 8 9 7 9 6 7 7 4 6 8 2 3 5 8 4 5 3 3 4 7 14 23 31 38 45 48 49 51 54 59 63 61 70
23 22 21 19 15 15 16 17 24 25 36 32 14 9 8 16 12 3 4 7 7 5 9 11 16 7 6 6 5 9 4 4 3 3 3 2 4 1 2 7 14 23 31 26 26 34 40 44 42 50 61 63 69 76
26 24 23 24 22 19 19 29 30 34 32 23 13 14 14 9 6 4 5 7 7 6 9 8 11 16 9 11 5 5 3 2 4 9 4 3 2 1 5 15 22 28 25 25 29 40 38 30 33 42 51 64 68 75
23 25 23 24 27 24 25 29 22 32 33 22 8 9 8 7 6 9 8 6 5 9 9 9 6 9 9 12 9 2 2 5 5 3 4 2 5 2 16 24 23 21 25 26 34 43 28 33 36 41 60 67 70 77
22 26 28 26 26 26 31 37 33 47 29 12 13 10 8 9 9 9 8 6 11 11 4 12 9 9 8 4 1 2 2 3 2 3 2 2 1 10 14 15 14 21 30 30 37 42 33 40 43 48 63 67 73 79
20 21 26 23 29 35 35 42 54 49 15 9 10 9 14 16 13 11 20 12 9 14 13 7 5 4 4 4 1 2 2 5 7 7 4 8 6 9 10 15 23 29 29 30 33 31 35 39 47 55 69 72 75 77
20 26 32 22 29 30 43 52 61 46 13 8 11 7 10 4 11 23 23 14 9 2 11 2 3 3 7 3 2 8 5 7 6 5 13 15 11 9 10 18 28 29 30 28 23 25 31 39 47 57 71 75 81 79
23 32 22 22 27 33 44 64 33 16 13 8 9 20 21 9 14 9 24 22 15 2 2 4 5 3 2 3 5 6 7 6 13 21 20 17 11 7 9 18 28 29 27 26 25 25 30 37 44 58 78 82 85 81
38 24 17 13 29 64 62 31 19 15 12 14 10 15 25 24 15 14 18 23 12 10 6 4 6 5 6 4 6 5 6 17 25 22 22 16 7 2 11 17 23 25 28 28 29 28 32 38 47 59 73 79 87 85
41 27 23 29 35 52 21 18 12 10 19 9 21 26 15 14 29 28 19 18 18 17 10 6 6 6 7 11 12 8 25 35 36 27 19 12 6 2 8 16 22 26 27 29 31 35 37 41 42 48 65 76 87 83
25 24 26 41 55 19 12 10 14 9 10 12 16 14 13 11 14 22 33 23 21 6 9 7 7 8 7 15 18 16 29 33 39 31 19 15 14 9 9 18 21 23 26 28 30 31 35 43 47 48 55 68 80 81
27 22 55 67 32 11 12 12 12 9 7 11 7 19 6 13 17 18 25 28 24 13 7 20 19 21 16 31 21 11 32 33 39 26 29 31 22 9 12 17 19 21 27 34 41 43 41 42 44 48 51 59 70 79
40 56 43 46 6 11 6 14 8 6 10 5 10 14 6 6 10 15 19 22 12 16 27 31 26 15 10 25 17 18 23 28 27 21 25 29 23 14 13 16 17 21 26 30 35 39 41 38 38 46 50 56 65 79
58 45 16 13 6 11 5 19 10 10 5 7 13 6 5 7 8 15 8 12 18 37 41 45 31 26 26 22 20 19 21 28 29 22 30 25 22 15 13 16 17 17 21 26 28 30 36 39 35 45 50 57 63 73
41 17 9 17 10 8 11 11 8 9 7 6 5 5 6 8 18 7 5 9 24 19 34 42 35 28 35 35 29 28 31 26 24 29 28 24 20 17 12 14 16 17 23 21 22 28 34 41 42 43 50 57 60 65
13 10 11 8 10 9 8 8 6 7 6 7 7 6 5 11 5 4 5 10 17 20 30 42 41 41 47 40 36 35 30 26 19 24 29 23 16 15 11 10 11 13 19 20 26 29 33 36 43 48 50 52 55 56
7 13 12 16 11 10 9 9 12 10 6 8 8 6 8 4 5 7 5 6 8 23 35 45 49 52 52 44 40 36 35 29 16 16 23 21 9 4 3 4 7 12 15 20 23 26 30 35 39 43 46 49 50 51
9 9 13 14 13 9 6 5 11 6 9 10 5 7 4 5 8 6 3 8 3 17 30 38 37 45 48 41 30 33 37 27 17 10 20 23 12 4 3 3 5 10 12 16 19 25 28 30 33 37 40 41 43 44
6 13 10 22 11 10 5 5 6 8 5 7 6 9 5 5 3 6 3 5 7 17 21 36 38 39 39 33 32 40 37 32 25 21 26 21 12 9 8 6 7 10 10 11 17 22 25 28 31 33 35 38 39 38
5 14 19 6 6 6 7 6 7 9 7 10 5 3 3 4 5 2 10 2 13 13 26 31 29 32 42 41 39 40 39 35 30 30 24 18 18 14 10 4 6 10 12 15 17 20 23 26 28 29 30 32 34 33
10 20 7 7 6 5 9 12 10 7 12 11 8 7 7 10 14 11 13 14 15 16 27 31 28 24 38 44 43 45 41 32 22 6 5 12 16 12 6 1 7 11 13 14 16 19 21 22 23 22 22 23 24 25
20 9 7 6 6 6 13 15 13 12 10 8 9 12 12 9 18 16 16 17 16 15 19 21 24 24 27 33 45 48 41 31 23 16 14 9 14 10 7 7 10 10 12 14 17 18 19 20 21 22 22 23 24 25
13 8 6 4 4 23 25 8 5 5 5 5 5 6 6 6 7 7 9 10 12 12 17 27 29 25 23 25 27 27 20 22 28 28 21 16 14 11 9 9 9 11 13 15 16 17 19 21 23 24 24 24 25 25
7 10 7 8 5 5 8 8 5 5 6 5 5 6 7 6 6 6 13 15 18 26 29 34 31 25 19 17 15 15 14 16 20 21 19 15 11 9 9 9 10 11 12 14 16 17 19 20 22 23 25 27 29 30
Wind_Direction_500mb
270 268 267 268 270 275 277 267 267 275 279 281 290 299 288 279 293 281 278 277 276 260 282 265 254 235 251 224 237 333 325 319 284 64 271 274 283 279 299 291 187 176 176 207 153 242 282 10 349 301 241 317 319 313
274 268 264 264 262 265 275 268 264 266 273 277 274 290 286 268 272 274 277 279 277 277 276 295 286 269 258 254 267 258 273 313 301 324 310 298 303 333 172 276 19 208 194 189 181 222 238 192 288 298 270 315 313 300
277 270 263 258 256 260 265 264 269 270 270 274 260 279 271 259 263 273 277 280 293 289 306 309 300 209 270 150 340 211 238 247 186 223 262 272 265 126 258 251 298 312 30 218 355 226 236 306 287 344 310 305 306 302
287 276 263 253 249 253 259 257 256 263 266 263 254 257 262 250 258 266 274 288 276 282 281 284 313 303 292 247 279 244 236 240 333 296 252 278 253 201 245 295 187 223 26 179 273 292 314 317 299 318 316 315 317 308
288 283 269 253 242 243 246 254 255 264 255 264 247 250 257 248 257 268 281 283 270 249 284 294 308 345 17 297 261 211 241 247 274 281 246 248 258 325 312 353 258 196 186 145 240 271 258 291 316 319 315 311 303 301
293 286 280 265 234 236 240 245 245 258 250 261 248 255 260 256 258 265 297 307 216 228 298 304 313 305 354 356 212 227 237 241 232 228 237 284 285 228 199 258 262 248 244 248 261 304 300 306 310 320 314 311 307 299
292 290 288 267 236 236 238 242 242 242 257 240 226 245 247 250 245 238 250 277 195 301 274 298 286 287 334 341 196 224 236 216 214 202 220 227 257 219 234 237 243 298 281 289 293 302 309 319 317 319 313 311 311 314
289 290 282 268 248 240 238 240 238 232 244 231 236 247 241 226 248 263 267 251 233 261 237 275 275 299 341 309 163 162 170 205 218 219 214 233 254 223 262 265 300 286 289 304 312 316 311 316 322 318 315 316 320 317
278 281 286 273 261 244 240 237 230 217 233 229 229 223 213 237 242 251 226 240 226 215 244 250 276 287 341 291 183 145 170 220 229 225 231 165 252 232 256 299 289 322 349 328 324 324 334 335 329 320 323 326 323 316
273 273 272 270 268 259 240 231 212 205 226 224 195 192 218 215 196 197 213 175 199 222 230 246 237 264 310 283 288 196 194 238 230 231 156 220 248 243 27 58 26 353 342 341 336 342 342 334 330 321 322 329 328 324
266 263 260 256 260 264 235 215 194 209 212 189 187 190 186 155 168 244 231 199 184 249 225 243 234 239 254 246 280 210 201 207 261 183 238 206 273 162 318 346 350 343 341 350 343 339 330 328 322 324 330 340 335 333
259 261 259 254 246 247 229 197 222 220 209 185 163 159 155 180 198 253 220 185 207 249 212 222 233 214 247 225 270 235 232 136 254 134 246 262 77 58 337 341 342 343 357 360 349 335 337 346 338 336 341 342 338 336
258 254 263 250 239 234 218 214 215 225 189 168 182 148 165 167 209 210 210 191 226 200 231 222 215 215 223 230 256 310 323 227 131 223 230 241 227 334 341 341 353 9 4 351 342 353 9 356 354 354 353 352 347 343
260 271 257 239 230 227 212 221 205 205 180 176 162 175 207 194 227 202 196 197 212 197 304 296 286 203 220 191 230 232 267 98 309 246 291 185 109 0 12 32 12 355 353 349 346 351 2 358 356 1 1 356 353 352
260 274 255 246 219 216 212 216 207 194 180 178 186 212 218 228 238 235 241 242 231 242 249 257 253 304 276 196 311 1 244 269 205 227 226 150 107 84 47 10 352 346 349 347 346 359 9 5 3 6 9 6 6 360
267 268 257 238 233 212 193 210 189 189 190 220 220 244 230 196 256 239 238 224 279 184 179 162 277 238 227 189 177 222 137 228 247 209 148 141 129 92 45 3 352 353 351 353 2 9 12 10 9 11 13 12 14 11
250 254 255 234 199 202 202 184 172 179 209 216 238 232 232 265 246 245 219 207 223 233 190 198 221 219 62 246 239 180 201 218 173 148 146 136 124 77 6 354 353 356 7 11 10 10 11 10 15 16 16 14 16 16
238 254 230 194 178 182 169 179 178 191 218 209 222 229 221 229 236 232 200 193 176 205 182 240 299 176 208 275 263 228 173 141 144 143 144 147 148 336 340 357 6 21 23 31 28 28 19 21 21 19 17 15 17 18
241 231 233 209 192 175 166 180 190 199 216 212 239 245 244 244 241 228 203 212 251 198 175 229 246 207 216 221 253 236 172 162 158 157 160 164 170 38 21 21 36 39 38 34 40 41 34 29 24 20 19 19 19 19
213 210 218 209 192 164 158 176 182 207 202 219 223 228 207 215 241 229 218 214 222 214 201 214 226 205 223 303 313 269 189 172 163 154 159 164 150 134 50 44 46 44 40 42 40 36 33 33 29 25 24 23 21 23
200 223 194 186 170 156 177 167 186 211 215 214 229 205 224 219 218 211 213 217 217 201 211 233 239 224 221 269 313 213 189 181 179 173 162 153 152 137 66 52 44 38 37 37 37 38 35 30 28 28 30 28 25 27
171 176 169 175 134 169 199 192 189 191 193 221 181 191 206 218 216 215 205 195 226 215 216 220 234 187 232 275 243 194 185 181 178 161 157 153 153 133 86 62 43 37 37 39 36 34 33 34 35 34 35 33 29 30
172 171 139 149 150 181 198 178 186 194 213 193 172 187 234 230 222 164 208 222 233 236 230 218 222 213 227 211 172 170 183 184 167 160 157 153 146 122 83 60 50 49 43 44 37 33 32 34 41 37 37 35 32 31
175 142 146 172 167 178 166 197 204 183 208 191 193 217 227 216 171 207 243 238 239 246 215 207 209 192 171 168 168 166 164 171 162 164 170 167 157 137 101 59 46 50 45 44 39 40 37 36 36 36 36 35 34 32
134 174 171 164 184 163 188 172 195 190 202 197 194 242 207 165 207 240 237 261 238 220 193 189 193 198 182 175 174 174 176 179 172 168 176 181 166 149 121 84 68 63 54 48 45 41 38 31 29 30 32 33 32 33
160 183 195 184 160 184 185 177 193 190 171 181 222 225 155 173 225 239 233 295 234 186 186 188 194 193 191 192 183 185 186 183 185 171 177 181 176 57 109 103 94 72 56 41 33 33 30 27 23 23 26 25 26 28
161 184 195 185 178 187 184 178 162 159 192 194 195 168 201 217 225 252 350 13 159 197 198 201 201 200 194 189 190 181 179 180 186 183 165 165 174 159 96 97 78 72 48 30 23 25 25 24 21 16 15 14 17 21
198 171 174 176 185 180 149 172 171 184 176 192 179 184 200 208 266 346 17 282 215 240 223 207 204 204 190 186 180 180 183 181 181 176 168 164 162 141 117 91 52 33 15 7 11 12 13 15 14 11 6 5 5 7
192 162 147 141 132 154 207 195 193 200 200 191 184 143 157 86 356 350 346 269 209 214 190 174 176 188 188 183 185 188 188 189 189 177 180 174 173 167 149 91 11 355 356 357 356 358 360 1 2 1 360 357 356 355
173 164 129 130 154 186 208 196 182 192 176 163 152 134 111 90 68 93 81 97 146 173 176 174 184 192 187 188 185 184 189 194 200 194 200 211 196 193 184 343 338 335 339 343 346 348 349 349 350 349 349 349 349 350
153 134 131 144 171 167 149 147 155 156 132 108 137 149 137 119 86 89 111 114 119 139 152 166 167 172 188 200 199 193 190 193 192 219 251 217 198 217 255 295 310 320 330 333 334 337 341 345 347 350 351 350 349 346
154 162 142 116 105 135 145 123 104 92 86 88 93 104 107 91 74 67 84 128 139 152 182 179 168 173 179 179 179 185 195 216 220 220 223 213 218 228 252 279 299 315 323 328 333 339 343 347 349 352 354 354 352 347
140 154 114 116 124 109 112 101 86 81 71 73 76 97 78 81 90 87 102 132 141 144 142 145 143 156 167 179 201 214 202 172 162 167 175 189 215 244 268 292 310 321 329 334 338 342 345 348 350 352 352 350 348 346
Wind_Speed_850mb
41 40 40 40 38 36 36 32 29 30 31 28 23 25 23 24 19 14 12 15 14 12 36 26 16 15 16 13 3 11 17 2 6 3 2 3 2 2 4 4 4 6 6 5 3 2 11 9 9 3 6 13 30 45
44 45 43 40 39 36 30 28 27 32 32 29 20 23 22 20 21 18 19 13 16 23 43 64 63 59 59 62 36 10 8 11 7 3 3 3 3 3 0 4 4 4 7 6 12 9 3 3 19 30 19 39 45 41
42 44 45 44 41 37 34 31 28 28 28 30 20 23 23 24 21 23 22 21 20 23 43 19 7 2 1 13 6 17 11 10 5 8 4 4 6 3 2 6 3 3 3 3 4 1 6 28 4 13 27 35 49 48
41 42 44 46 45 40 35 31 31 29 28 30 26 20 23 27 23 24 24 24 16 12 9 15 18 46 33 38 50 35 34 5 6 11 5 1 4 3 5 4 4 8 3 3 8 9 24 2 19 40 50 54 57 53
40 38 39 43 44 41 35 32 31 25 28 26 24 21 19 25 27 24 25 27 20 13 9 26 61 14 9 13 25 30 36 43 27 7 3 4 5 3 3 2 5 6 7 6 7 11 11 31 44 46 50 57 57 55
33 33 33 34 41 40 36 31 27 23 24 24 21 16 18 20 24 16 8 4 12 18 10 8 20 15 12 10 17 26 32 25 13 6 3 7 8 5 1 4 9 10 12 14 10 20 32 41 40 48 60 63 59 58
28 27 24 23 33 35 33 30 29 27 24 21 18 19 19 21 22 12 7 4 10 1 5 11 10 11 21 7 8 31 29 17 12 7 4 7 9 11 3 5 6 16 15 20 25 30 35 15 47 52 57 62 65 64
26 24 22 23 27 30 31 32 28 28 20 19 18 22 24 18 20 22 22 18 13 6 6 5 8 11 11 7 4 9 14 18 12 8 6 6 5 6 5 11 18 14 16 20 14 27 34 40 42 50 57 59 66 69
22 22 19 19 20 24 26 26 26 23 24 27 27 25 17 14 11 8 4 5 11 13 5 5 5 6 14 8 4 4 5 3 7 4 5 4 3 5 8 12 9 10 12 21 35 39 36 40 43 55 56 61 63 65
23 23 21 18 16 16 18 21 23 21 26 37 29 11 8 7 11 7 3 4 6 8 9 7 9 6 7 7 4 6 8 2 3 5 8 4 5 3 3 4 7 14 23 31 38 45 48 49 51 54 59 63 61 70
23 22 21 19 15 15 16 17 24 25 36 32 14 9 8 16 12 3 4 7 7 5 9 11 16 7 6 6 5 9 4 4 3 3 3 2 4 1 2 7 14 23 31 26 26 34 40 44 42 50 61 63 69 76
26 24 23 24 22 19 19 29 30 34 32 23 13 14 14 9 6 4 5 7 7 6 9 8 11 16 9 11 5 5 3 2 4 9 4 3 2 1 5 15 22 28 25 25 29 40 38 30 33 42 51 64 68 75
23 25 23 24 27 24 25 29 22 32 33 22 8 9 8 7 6 9 8 6 5 9 9 9 6 9 9 12 9 2 2 5 5 3 4 2 5 2 16 24 23 21 25 26 34 43 28 33 36 41 60 67 70 77
22 26 28 26 26 26 31 37 33 47 29 12 13 10 8 9 9 9 8 6 11 11 4 12 9 9 8 4 1 2 2 3 2 3 2 2 1 10 14 15 14 21 30 30 37 42 33 40 43 48 63 67 73 79
20 21 26 23 29 35 35 42 54 49 15 9 10 9 14 16 13 11 20 12 9 14 13 7 5 4 4 4 1 2 2 5 7 7 4 8 6 9 10 15 23 29 29 30 33 31 35 39 47 55 69 72 75 77
20 26 32 22 29 30 43 52 61 46 13 8 11 7 10 4 11 23 23 14 9 2 11 2 3 3 7 3 2 8 5 7 6 5 13 15 11 9 10 18 28 29 30 28 23 25 31 39 47 57 71 75 81 79
23 32 22 22 27 33 44 64 33 16 13 8 9 20 21 9 14 9 24 22 15 2 2 4 5 3 2 3 5 6 7 6 13 21 20 17 11 7 9 18 28 29 27 26 25 25 30 37 44 58 78 82 85 81
38 24 17 13 29 64 62 31 19 15 12 14 10 15 25 24 15 14 18 23 12 10 6 4 6 5 6 4 6 5 6 17 25 22 22 16 7 2 11 17 23 25 28 28 29 28 32 38 47 59 73 79 87 85
41 27 23 29 35 52 21 18 12 10 19 9 21 26 15 14 29 28 19 18 18 17 10 6 6 6 7 11 12 8 25 35 36 27 19 12 6 2 8 16 22 26 27 29 31 35 37 41 42 48 65 76 87 83
25 24 26 41 55 19 12 10 14 9 10 12 16 14 13 11 14 22 33 23 21 6 9 7 7 8 7 15 18 16 29 33 39 31 19 15 14 9 9 18 21 23 26 28 30 31 35 43 47 48 55 68 80 81
27 22 55 67 32 11 12 12 12 9 7 11 7 19 6 13 17 18 25 28 24 13 7 20 19 21 16 31 21 11 32 33 39 26 29 31 22 9 12 17 19 21 27 34 41 43 41 42 44 48 51 59 70 79
40 56 43 46 6 11 6 14 8 6 10 5 10 14 6 6 10 15 19 22 12 16 27 31 26 15 10 25 17 18 23 28 27 21 25 29 23 14 13 16 17 21 26 30 35 39 41 38 38 46 50 56 65 79
58 45 16 13 6 11 5 19 10 10 5 7 13 6 5 7 8 15 8 12 18 37 41 45 31 26 26 22 20 19 21 28 29 22 30 25 22 15 13 16 17 17 21 26 28 30 36 39 35 45 50 57 63 73
41 17 9 17 10 8 11 11 8 9 7 6 5 5 6 8 18 7 5 9 24 19 34 42 35 28 35 35 29 28 31 26 24 29 28 24 20 17 12 14 16 17 23 21 22 28 34 41 42 43 50 57 60 65
13 10 11 8 10 9 8 8 6 7 6 7 7 6 5 11 5 4 5 10 17 20 30 42 41 41 47 40 36 35 30 26 19 24 29 23 16 15 11 10 11 13 19 20 26 29 33 36 43 48 50 52 55 56
7 13 12 16 11 10 9 9 12 10 6 8 8 6 8 4 5 7 5 6 8 23 35 45 49 52 52 44 40 36 35 29 16 16 23 21 9 4 3 4 7 12 15 20 23 26 30 35 39 43 46 49 50 51
9 9 13 14 13 9 6 5 11 6 9 10 5 7 4 5 8 6 3 8 3 17 30 38 37 45 48 41 30 33 37 27 17 10 20 23 12 4 3 3 5 10 12 16 19 25 28 30 33 37 40 41 43 44
6 13 10 22 11 10 5 5 6 8 5 7 6 9 5 5 3 6 3 5 7 17 21 36 38 39 39 33 32 40 37 32 25 21 26 21 12 9 8 6 7 10 10 11 17 22 25 28 31 33 35 38 39 38
5 14 19 6 6 6 7 6 7 9 7 10 5 3 3 4 5 2 10 2 13 13 26 31 29 32 42 41 39 40 39 35 30 30 24 18 18 14 10 4 6 10 12 15 17 20 23 26 28 29 30 32 34 33
10 20 7 7 6 5 9 12 10 7 12 11 8 7 7 10 14 11 13 14 15 16 27 31 28 24 38 44 43 45 41 32 22 6 5 12 16 12 6 1 7 11 13 14 16 19 21 22 23 22 22 23 24 25
20 9 7 6 6 6 13 15 13 12 10 8 9 12 12 9 18 16 16 17 16 15 19 21 24 24 27 33 45 48 41 31 23 16 14 9 14 10 7 7 10 10 12 14 17 18 19 20 21 22 22 23 24 25
13 8 6 4 4 23 25 8 5 5 5 5 5 6 6 6 7 7 9 10 12 12 17 27 29 25 23 25 27 27 20 22 28 28 21 16 14 11 9 9 9 11 13 15 16 17 19 21 23 24 24 24 25 25
7 10 7 8 5 5 8 8 5 5 6 5 5 6 7 6 6 6 13 15 18 26 29 34 31 25 19 17 15 15 14 16 20 21 19 15 11 9 9 9 10 11 12 14 16 17 19 20 22 23 25 27 29 30
Wind_Direction_850mb
270 268 267 268 270 275 277 267 267 275 279 281 290 299 288 279 293 281 278 277 276 260 282 265 254 235 251 224 237 333 325 319 284 64 271 274 283 279 299 291 187 176 176 207 153 242 282 10 349 301 241 317 319 313
274 268 264 264 262 265 275 268 264 266 273 277 274 290 286 268 272 274 277 279 277 277 276 295 286 269 258 254 267 258 273 313 301 324 310 298 303 333 172 276 19 208 194 189 181 222 238 192 288 298 270 315 313 300
277 270 263 258 256 260 265 264 269 270 270 274 260 279 271 259 263 273 277 280 293 289 306 309 300 209 270 150 340 211 238 247 186 223 262 272 265 126 258 251 298 312 30 218 355 226 236 306 287 344 310 305 306 302
287 276 263 253 249 253 259 257 256 263 266 263 254 257 262 250 258 266 274 288 276 282 281 284 313 303 292 247 279 244 236 240 333 296 252 278 253 201 245 295 187 223 26 179 273 292 314 317 299 318 316 315 317 308
288 283 269 253 242 243 246 254 255 264 255 264 247 250 257 248 257 268 281 283 270 249 284 294 308 345 17 297 261 211 241 247 274 281 246 248 258 325 312 353 258 196 186 145 240 271 258 291 316 319 315 311 303 301
293 286 280 265 234 236 240 245 245 258 250 261 248 255 260 256 258 265 297 307 216 228 298 304 313 305 354 356 212 227 237 241 232 228 237 284 285 228 199 258 262 248 244 248 261 304 300 306 310 320 314 311 307 299
292 290 288 267 236 236 238 242 242 242 257 240 226 245 247 250 245 238 250 277 195 301 274 298 286 287 334 341 196 224 236 216 214 202 220 227 257 219 234 237 243 298 281 289 293 302 309 319 317 319 313 311 311 314
289 290 282 268 248 240 238 240 238 232 244 231 236 247 241 226 248 263 267 251 233 261 237 275 275 299 341 309 163 162 170 205 218 219 214 233 254 223 262 265 300 286 289 304 312 316 311 316 322 318 315 316 320 317
278 281 286 273 261 244 240 237 230 217 233 229 229 223 213 237 242 251 226 240 226 215 244 250 276 287 341 291 183 145 170 220 229 225 231 165 252 232 256 299 289 322 349 328 324 324 334 335 329 320 323 326 323 316
273 273 272 270 268 259 240 231 212 205 226 224 195 192 218 215 196 197 213 175 199 222 230 246 237 264 310 283 288 196 194 238 230 231 156 220 248 243 27 58 26 353 342 341 336 342 342 334 330 321 322 329 328 324
266 263 260 256 260 264 235 215 194 209 212 189 187 190 186 155 168 244 231 199 184 249 225 243 234 239 254 246 280 210 201 207 261 183 238 206 273 162 318 346 350 343 341 350 343 339 330 328 322 324 330 340 335 333
259 261 259 254 246 247 229 197 222 220 209 185 163 159 155 180 198 253 220 185 207 249 212 222 233 214 247 225 270 235 232 136 254 134 246 262 77 58 337 341 342 343 357 360 349 335 337 346 338 336 341 342 338 336
258 254 263 250 239 234 218 214 215 225 189 168 182 148 165 167 209 210 210 191 226 200 231 222 215 215 223 230 256 310 323 227 131 223 230 241 227 334 341 341 353 9 4 351 342 353 9 356 354 354 353 352 347 343
260 271 257 239 230 227 212 221 205 205 180 176 162 175 207 194 227 202 196 197 212 197 304 296 286 203 220 191 230 232 267 98 309 246 291 185 109 0 12 32 12 355 353 349 346 351 2 358 356 1 1 356 353 352
260 274 255 246 219 216 212 216 207 194 180 178 186 212 218 228 238 235 241 242 231 242 249 257 253 304 276 196 311 1 244 269 205 227 226 150 107 84 47 10 352 346 349 347 346 359 9 5 3 6 9 6 6 360
267 268 257 238 233 212 193 210 189 189 190 220 220 244 230 196 256 239 238 224 279 184 179 162 277 238 227 189 177 222 137 228 247 209 148 141 129 92 45 3 352 353 351 353 2 9 12 10 9 11 13 12 14 11
250 254 255 234 199 202 202 184 172 179 209 216 238 232 232 265 246 245 219 207 223 233 190 198 221 219 62 246 239 180 201 218 173 148 146 136 124 77 6 354 353 356 7 11 10 10 11 10 15 16 16 14 16 16
238 254 230 194 178 182 169 179 178 191 218 209 222 229 221 229 236 232 200 193 176 205 182 240 299 176 208 275 263 228 173 141 144 143 144 147 148 336 340 357 6 21 23 31 28 28 19 21 21 19 17 15 17 18
241 231 233 209 192 175 166 180 190 199 216 212 239 245 244 244 241 228 203 212 251 198 175 229 246 207 216 221 253 236 172 162 158 157 160 164 170 38 21 21 36 39 38 34 40 41 34 29 24 20 19 19 19 19
213 210 218 209 192 164 158 176 182 207 202 219 223 228 207 215 241 229 218 214 222 214 201 214 226 205 223 303 313 269 189 172 163 154 159 164 150 134 50 44 46 44 40 42 40 36 33 33 29 25 24 23 21 23
200 223 194 186 170 156 177 167 186 211 215 214 229 205 224 219 218 211 213 217 217 201 211 233 239 224 221 269 313 213 189 181 179 173 162 153 152 137 66 52 44 38 37 37 37 38 35 30 28 28 30 28 25 27
171 176 169 175 134 169 199 192 189 191 193 221 181 191 206 218 216 215 205 195 226 215 216 220 234 187 232 275 243 194 185 181 178 161 157 153 153 133 86 62 43 37 37 39 36 34 33 34 35 34 35 33 29 30
172 171 139 149 150 181 198 178 186 194 213 193 172 187 234 230 222 164 208 222 233 236 230 218 222 213 227 211 172 170 183 184 167 160 157 153 146 122 83 60 50 49 43 44 37 33 32 34 41 37 37 35 32 31
175 142 146 172 167 178 166 197 204 183 208 191 193 217 227 216 171 207 243 238 239 246 215 207 209 192 171 168 168 166 164 171 162 164 170 167 157 137 101 59 46 50 45 44 39 40 37 36 36 36 36 35 34 32
134 174 171 164 184 163 188 172 195 190 202 197 194 242 207 165 207 240 237 261 238 220 193 189 193 198 182 175 174 174 176 179 172 168 176 181 166 149 121 84 68 63 54 48 45 41 38 31 29 30 32 33 32 33
160 183 195 184 160 184 185 177 193 190 171 181 222 225 155 173 225 239 233 295 234 186 186 188 194 193 191 192 183 185 186 183 185 171 177 181 176 57 109 103 94 72 56 41 33 33 30 27 23 23 26 25 26 28
161 184 195 185 178 187 184 178 162 159 192 194 195 168 201 217 225 252 350 13 159 197 198 201 201 200 194 189 190 181 179 180 186 183 165 165 174 159 96 97 78 72 48 30 23 25 25 24 21 16 15 14 17 21
198 171 174 176 185 180 149 172 171 184 176 192 179 184 200 208 266 346 17 282 215 240 223 207 204 204 190 186 180 180 183 181 181 176 168 164 162 141 117 91 52 33 15 7 11 12 13 15 14 11 6 5 5 7
192 162 147 141 132 154 207 195 193 200 200 191 184 143 157 86 356 350 346 269 209 214 190 174 176 188 188 183 185 188 188 189 189 177 180 174 173 167 149 91 11 355 356 357 356 358 360 1 2 1 360 357 356 355
173 164 129 130 154 186 208 196 182 192 176 163 152 134 111 90 68 93 81 97 146 173 176 174 184 192 187 188 185 184 189 194 200 194 200 211 196 193 184 343 338 335 339 343 346 348 349 349 350 349 349 349 349 350
153 134 131 144 171 167 149 147 155 156 132 108 137 149 137 119 86 89 111 114 119 139 152 166 167 172 188 200 199 193 190 193 192 219 251 217 198 217 255 295 310 320 330 333 334 337 341 345 347 350 351 350 349 346
154 162 142 116 105 135 145 123 104 92 86 88 93 104 107 91 74 67 84 128 139 152 182 179 168 173 179 179 179 185 195 216 220 220 223 213 218 228 252 279 299 315 323 328 333 339 343 347 349 352 354 354 352 347
140 154 114 116 124 109 112 101 86 81 71 73 76 97 78 81 90 87 102 132 141 144 142 145 143 156 167 179 201 214 202 172 162 167 175 189 215 244 268 292 310 321 329 334 338 342 345 348 350 352 352 350 348 346